Chicago Executive, IL

9:33 AM CST on December 09, 2019 (GMT -0600)
Chicago Executive

Weather History for KPWK - October, 2019

Change the Weather History Date:

Tuesday, October 1, 2019

  Actual Average Record
Temperature  
Mean Temperature 80 °F 58 °F  
Max Temperature 88 °F 68 °F 82 °F (2000)
Min Temperature 73 °F 48 °F 31 °F (2003)
Degree Days  
Heating Degree Days 0 8  
Month to date heating degree days 8  
Since 1 July heating degree days 120  
Cooling Degree Days 15 1  
Month to date cooling degree days 1  
Year to date cooling degree days 779  
Growing Degree Days 30 (Base 50)    
Moisture  
Dew Point 68 °F    
Average Humidity 68    
Maximum Humidity 76    
Minimum Humidity 57    
Precipitation  
Precipitation 0.00 in 0.13 in 1.10 in (2018)
Month to date precipitation 0.13  
Year to date precipitation 25.82  
Sea Level Pressure  
Sea Level Pressure 29.91 in    
Wind  
Wind Speed 6 mph ()    
Max Wind Speed 13 mph    
Max Gust Speed -    
Visibility 10.0 miles    
Events      
T = Trace of Precipitation, MM = Missing Value Source: Averaged Metar Reports

Daily Weather History Graph

Daily Weather History Graph

Search for Another Location

Airport or City:

Astronomy

Oct. 01, 2019 Rise Set
Actual Time 6:48 AM CDT 6:33 PM CDT
Civil Twilight 6:20 AM CDT 7:01 PM CDT
Nautical Twilight 5:48 AM CDT 7:33 PM CDT
Astronomical Twilight 5:15 AM CDT 8:06 PM CDT
Moon 10:06 AM CDT (10/1) 8:43 PM CDT (10/1)
Length of Visible Light 12h 40m
Length of Day
11h 45m
Waxing Crescent, 12% of the Moon is Illuminated
Oct 1
Waxing Crescent
Oct 5
First Quarter
Oct 13
Full
Oct 21
Last Quarter
Oct 27
New

Hourly Weather History & Observations

Time (CDT) Temp. Heat Index Dew Point Humidity Pressure Visibility Wind Dir Wind Speed Gust Speed Precip Events Conditions
12:52 AM 78.1 °F - 64.9 °F 64% 29.94 in 10.0 mi SSW 4.6 mph - N/A   Mostly Cloudy
1:52 AM 75.0 °F - 64.9 °F 71% 29.94 in 10.0 mi South 5.8 mph - N/A   Clear
2:52 AM 75.0 °F - 64.9 °F 71% 29.93 in 10.0 mi SSW 5.8 mph - N/A   Clear
3:52 AM 75.0 °F - 64.9 °F 71% 29.93 in 10.0 mi SSW 5.8 mph - N/A   Clear
4:52 AM 73.0 °F - 64.9 °F 76% 29.93 in 10.0 mi South 5.8 mph - N/A   Clear
5:52 AM 73.9 °F - 66.0 °F 76% 29.93 in 10.0 mi SSW 6.9 mph - N/A   Clear
6:52 AM 75.0 °F - 64.9 °F 71% 29.94 in 10.0 mi SW 5.8 mph - N/A   Clear
7:52 AM 75.9 °F - 66.0 °F 71% 29.93 in 10.0 mi SSW 6.9 mph - N/A   Clear
8:52 AM 77.0 °F - 66.9 °F 71% 29.94 in 10.0 mi SSW 5.8 mph - N/A   Clear
9:52 AM 78.1 °F - 66.9 °F 68% 29.94 in 10.0 mi SW 8.1 mph - N/A   Mostly Cloudy
10:52 AM 79.0 °F - 68.0 °F 69% 29.94 in 10.0 mi SSW 9.2 mph - N/A   Mostly Cloudy
11:52 AM 82.0 °F 85.5 °F 69.1 °F 65% 29.94 in 10.0 mi SW 6.9 mph - N/A   Clear
12:52 PM 84.9 °F 89.4 °F 70.0 °F 61% 29.94 in 10.0 mi South 10.4 mph - N/A   Clear
1:52 PM 86.0 °F 91.5 °F 71.1 °F 61% 29.92 in 10.0 mi SW 5.8 mph - N/A   Mostly Cloudy
2:52 PM 87.1 °F 92.0 °F 70.0 °F 57% 29.91 in 10.0 mi SSW 6.9 mph - N/A   Mostly Cloudy
3:52 PM 82.0 °F 85.9 °F 70.0 °F 67% 29.90 in 10.0 mi North 12.7 mph - N/A   Overcast
4:52 PM 77.0 °F - 68.0 °F 74% 29.90 in 10.0 mi NE 5.8 mph - 0.00 in   Overcast
5:52 PM 77.0 °F - 66.9 °F 71% 29.87 in 10.0 mi ESE 4.6 mph - N/A   Scattered Clouds
6:52 PM 75.9 °F - 66.9 °F 74% 29.86 in 10.0 mi Calm Calm - N/A   Clear
7:52 PM 82.0 °F 86.3 °F 71.1 °F 69% 29.83 in 10.0 mi SSW 10.4 mph - N/A   Clear
8:52 PM 82.9 °F 87.5 °F 71.1 °F 67% 29.84 in 10.0 mi SSW 6.9 mph - N/A   Clear
9:52 PM 82.9 °F 87.0 °F 70.0 °F 65% 29.85 in 10.0 mi SSW 6.9 mph - N/A   Clear
10:52 PM 82.9 °F 87.0 °F 70.0 °F 65% 29.84 in 10.0 mi SSW 6.9 mph - N/A   Clear
11:52 PM 82.0 °F 85.5 °F 69.1 °F 65% 29.87 in 10.0 mi SW 3.5 mph - N/A   Partly Cloudy